<?xml version="1.0"?>
<gpx xmlns="http://www.topografix.com/GPX/1/1" xmlns:xsi="http://www.w3.org/2001/XMLSchema-instance" version="1.1" creator="GPX RubyGem 1.0.0 -- http://dougfales.github.io/gpx/" xsi:schemaLocation="http://www.topografix.com/GPX/1/1 http://www.topografix.com/GPX/1/1/gpx.xsd">
  <metadata>
    <name/>
    <time>2026-05-08T21:01:59+00:00</time>
    <bound minlat="90.0" minlon="180.0" maxlat="-90.0" maxlon="-180.0"/>
  </metadata>
  <trk>
    <name/>
    <trkseg>
      <trkpt lat="47.401667" lon="14.936116">
        <time>1970-01-01T00:00:00+00:00</time>
        <ele>683.0</ele>
      </trkpt>
      <trkpt lat="47.401637" lon="14.936278">
        <time>1970-01-01T00:00:00+00:00</time>
        <ele>683.0</ele>
      </trkpt>
      <trkpt lat="47.401548" lon="14.936487">
        <time>1970-01-01T00:00:00+00:00</time>
        <ele>682.0</ele>
      </trkpt>
      <trkpt lat="47.401752" lon="14.936969">
        <time>1970-01-01T00:00:00+00:00</time>
        <ele>684.0</ele>
      </trkpt>
      <trkpt lat="47.402131" lon="14.938014">
        <time>1970-01-01T00:00:00+00:00</time>
        <ele>687.0</ele>
      </trkpt>
      <trkpt lat="47.40255" lon="14.938614">
        <time>1970-01-01T00:00:00+00:00</time>
        <ele>689.0</ele>
      </trkpt>
      <trkpt lat="47.402765" lon="14.938828">
        <time>1970-01-01T00:00:00+00:00</time>
        <ele>691.0</ele>
      </trkpt>
      <trkpt lat="47.403098" lon="14.939246">
        <time>1970-01-01T00:00:00+00:00</time>
        <ele>691.0</ele>
      </trkpt>
      <trkpt lat="47.403411" lon="14.939709">
        <time>1970-01-01T00:00:00+00:00</time>
        <ele>692.0</ele>
      </trkpt>
      <trkpt lat="47.40378" lon="14.940206">
        <time>1970-01-01T00:00:00+00:00</time>
        <ele>693.0</ele>
      </trkpt>
      <trkpt lat="47.404247" lon="14.940697">
        <time>1970-01-01T00:00:00+00:00</time>
        <ele>695.0</ele>
      </trkpt>
      <trkpt lat="47.404527" lon="14.940916">
        <time>1970-01-01T00:00:00+00:00</time>
        <ele>695.0</ele>
      </trkpt>
      <trkpt lat="47.405899" lon="14.941891">
        <time>1970-01-01T00:00:00+00:00</time>
        <ele>699.0</ele>
      </trkpt>
      <trkpt lat="47.406208" lon="14.942163">
        <time>1970-01-01T00:00:00+00:00</time>
        <ele>699.0</ele>
      </trkpt>
      <trkpt lat="47.406224" lon="14.942281">
        <time>1970-01-01T00:00:00+00:00</time>
        <ele>699.0</ele>
      </trkpt>
      <trkpt lat="47.406447" lon="14.943252">
        <time>1970-01-01T00:00:00+00:00</time>
        <ele>699.0</ele>
      </trkpt>
      <trkpt lat="47.406537" lon="14.943754">
        <time>1970-01-01T00:00:00+00:00</time>
        <ele>699.0</ele>
      </trkpt>
      <trkpt lat="47.406587" lon="14.944207">
        <time>1970-01-01T00:00:00+00:00</time>
        <ele>700.0</ele>
      </trkpt>
      <trkpt lat="47.406612" lon="14.944615">
        <time>1970-01-01T00:00:00+00:00</time>
        <ele>701.0</ele>
      </trkpt>
      <trkpt lat="47.406655" lon="14.946823">
        <time>1970-01-01T00:00:00+00:00</time>
        <ele>707.0</ele>
      </trkpt>
      <trkpt lat="47.406644" lon="14.94761">
        <time>1970-01-01T00:00:00+00:00</time>
        <ele>708.0</ele>
      </trkpt>
      <trkpt lat="47.406616" lon="14.948039">
        <time>1970-01-01T00:00:00+00:00</time>
        <ele>707.0</ele>
      </trkpt>
      <trkpt lat="47.406462" lon="14.949433">
        <time>1970-01-01T00:00:00+00:00</time>
        <ele>705.0</ele>
      </trkpt>
      <trkpt lat="47.406438" lon="14.950022">
        <time>1970-01-01T00:00:00+00:00</time>
        <ele>703.0</ele>
      </trkpt>
      <trkpt lat="47.406464" lon="14.950656">
        <time>1970-01-01T00:00:00+00:00</time>
        <ele>701.0</ele>
      </trkpt>
      <trkpt lat="47.406543" lon="14.950976">
        <time>1970-01-01T00:00:00+00:00</time>
        <ele>701.0</ele>
      </trkpt>
      <trkpt lat="47.406625" lon="14.951215">
        <time>1970-01-01T00:00:00+00:00</time>
        <ele>702.0</ele>
      </trkpt>
      <trkpt lat="47.406722" lon="14.951429">
        <time>1970-01-01T00:00:00+00:00</time>
        <ele>701.0</ele>
      </trkpt>
      <trkpt lat="47.406826" lon="14.951519">
        <time>1970-01-01T00:00:00+00:00</time>
        <ele>701.0</ele>
      </trkpt>
      <trkpt lat="47.406695" lon="14.951891">
        <time>1970-01-01T00:00:00+00:00</time>
        <ele>700.0</ele>
      </trkpt>
      <trkpt lat="47.406402" lon="14.952373">
        <time>1970-01-01T00:00:00+00:00</time>
        <ele>699.0</ele>
      </trkpt>
      <trkpt lat="47.406128" lon="14.952621">
        <time>1970-01-01T00:00:00+00:00</time>
        <ele>698.0</ele>
      </trkpt>
      <trkpt lat="47.405849" lon="14.952787">
        <time>1970-01-01T00:00:00+00:00</time>
        <ele>697.0</ele>
      </trkpt>
      <trkpt lat="47.405551" lon="14.952848">
        <time>1970-01-01T00:00:00+00:00</time>
        <ele>697.0</ele>
      </trkpt>
      <trkpt lat="47.405373" lon="14.952861">
        <time>1970-01-01T00:00:00+00:00</time>
        <ele>697.0</ele>
      </trkpt>
      <trkpt lat="47.405226" lon="14.952855">
        <time>1970-01-01T00:00:00+00:00</time>
        <ele>698.0</ele>
      </trkpt>
      <trkpt lat="47.404666" lon="14.952728">
        <time>1970-01-01T00:00:00+00:00</time>
        <ele>700.0</ele>
      </trkpt>
      <trkpt lat="47.404269" lon="14.952737">
        <time>1970-01-01T00:00:00+00:00</time>
        <ele>701.0</ele>
      </trkpt>
      <trkpt lat="47.404063" lon="14.952772">
        <time>1970-01-01T00:00:00+00:00</time>
        <ele>704.0</ele>
      </trkpt>
      <trkpt lat="47.403305" lon="14.952975">
        <time>1970-01-01T00:00:00+00:00</time>
        <ele>710.0</ele>
      </trkpt>
      <trkpt lat="47.403047" lon="14.953085">
        <time>1970-01-01T00:00:00+00:00</time>
        <ele>712.0</ele>
      </trkpt>
      <trkpt lat="47.402883" lon="14.953227">
        <time>1970-01-01T00:00:00+00:00</time>
        <ele>713.0</ele>
      </trkpt>
      <trkpt lat="47.402819" lon="14.953351">
        <time>1970-01-01T00:00:00+00:00</time>
        <ele>713.0</ele>
      </trkpt>
      <trkpt lat="47.402744" lon="14.954087">
        <time>1970-01-01T00:00:00+00:00</time>
        <ele>710.0</ele>
      </trkpt>
      <trkpt lat="47.402612" lon="14.954567">
        <time>1970-01-01T00:00:00+00:00</time>
        <ele>710.0</ele>
      </trkpt>
      <trkpt lat="47.402428" lon="14.954612">
        <time>1970-01-01T00:00:00+00:00</time>
        <ele>711.0</ele>
      </trkpt>
      <trkpt lat="47.40208" lon="14.954642">
        <time>1970-01-01T00:00:00+00:00</time>
        <ele>715.0</ele>
      </trkpt>
      <trkpt lat="47.40183" lon="14.954712">
        <time>1970-01-01T00:00:00+00:00</time>
        <ele>718.0</ele>
      </trkpt>
      <trkpt lat="47.401453" lon="14.954922">
        <time>1970-01-01T00:00:00+00:00</time>
        <ele>725.0</ele>
      </trkpt>
      <trkpt lat="47.401112" lon="14.955004">
        <time>1970-01-01T00:00:00+00:00</time>
        <ele>730.0</ele>
      </trkpt>
      <trkpt lat="47.40105" lon="14.955057">
        <time>1970-01-01T00:00:00+00:00</time>
        <ele>730.0</ele>
      </trkpt>
      <trkpt lat="47.400638" lon="14.955652">
        <time>1970-01-01T00:00:00+00:00</time>
        <ele>739.0</ele>
      </trkpt>
      <trkpt lat="47.400482" lon="14.955795">
        <time>1970-01-01T00:00:00+00:00</time>
        <ele>740.0</ele>
      </trkpt>
      <trkpt lat="47.400355" lon="14.955855">
        <time>1970-01-01T00:00:00+00:00</time>
        <ele>740.0</ele>
      </trkpt>
      <trkpt lat="47.40014" lon="14.9559">
        <time>1970-01-01T00:00:00+00:00</time>
        <ele>741.0</ele>
      </trkpt>
      <trkpt lat="47.399669" lon="14.955929">
        <time>1970-01-01T00:00:00+00:00</time>
        <ele>745.0</ele>
      </trkpt>
      <trkpt lat="47.398992" lon="14.955763">
        <time>1970-01-01T00:00:00+00:00</time>
        <ele>752.0</ele>
      </trkpt>
      <trkpt lat="47.398637" lon="14.955787">
        <time>1970-01-01T00:00:00+00:00</time>
        <ele>758.0</ele>
      </trkpt>
      <trkpt lat="47.398415" lon="14.955831">
        <time>1970-01-01T00:00:00+00:00</time>
        <ele>763.0</ele>
      </trkpt>
      <trkpt lat="47.398052" lon="14.9558">
        <time>1970-01-01T00:00:00+00:00</time>
        <ele>770.0</ele>
      </trkpt>
      <trkpt lat="47.397648" lon="14.955811">
        <time>1970-01-01T00:00:00+00:00</time>
        <ele>776.0</ele>
      </trkpt>
      <trkpt lat="47.397218" lon="14.955965">
        <time>1970-01-01T00:00:00+00:00</time>
        <ele>785.0</ele>
      </trkpt>
      <trkpt lat="47.397037" lon="14.955945">
        <time>1970-01-01T00:00:00+00:00</time>
        <ele>789.0</ele>
      </trkpt>
      <trkpt lat="47.396638" lon="14.955831">
        <time>1970-01-01T00:00:00+00:00</time>
        <ele>792.0</ele>
      </trkpt>
      <trkpt lat="47.396104" lon="14.955365">
        <time>1970-01-01T00:00:00+00:00</time>
        <ele>798.0</ele>
      </trkpt>
      <trkpt lat="47.395792" lon="14.955242">
        <time>1970-01-01T00:00:00+00:00</time>
        <ele>802.0</ele>
      </trkpt>
      <trkpt lat="47.395472" lon="14.955157">
        <time>1970-01-01T00:00:00+00:00</time>
        <ele>807.0</ele>
      </trkpt>
      <trkpt lat="47.395226" lon="14.955139">
        <time>1970-01-01T00:00:00+00:00</time>
        <ele>812.0</ele>
      </trkpt>
      <trkpt lat="47.394934" lon="14.955205">
        <time>1970-01-01T00:00:00+00:00</time>
        <ele>818.0</ele>
      </trkpt>
      <trkpt lat="47.394764" lon="14.955304">
        <time>1970-01-01T00:00:00+00:00</time>
        <ele>822.0</ele>
      </trkpt>
      <trkpt lat="47.394424" lon="14.955709">
        <time>1970-01-01T00:00:00+00:00</time>
        <ele>831.0</ele>
      </trkpt>
      <trkpt lat="47.39417" lon="14.955958">
        <time>1970-01-01T00:00:00+00:00</time>
        <ele>832.0</ele>
      </trkpt>
      <trkpt lat="47.393934" lon="14.956272">
        <time>1970-01-01T00:00:00+00:00</time>
        <ele>837.0</ele>
      </trkpt>
      <trkpt lat="47.393791" lon="14.956619">
        <time>1970-01-01T00:00:00+00:00</time>
        <ele>841.0</ele>
      </trkpt>
      <trkpt lat="47.393699" lon="14.956893">
        <time>1970-01-01T00:00:00+00:00</time>
        <ele>845.0</ele>
      </trkpt>
      <trkpt lat="47.39373" lon="14.956443">
        <time>1970-01-01T00:00:00+00:00</time>
        <ele>844.0</ele>
      </trkpt>
      <trkpt lat="47.393667" lon="14.955727">
        <time>1970-01-01T00:00:00+00:00</time>
        <ele>847.0</ele>
      </trkpt>
      <trkpt lat="47.393634" lon="14.954954">
        <time>1970-01-01T00:00:00+00:00</time>
        <ele>856.0</ele>
      </trkpt>
      <trkpt lat="47.39356" lon="14.953954">
        <time>1970-01-01T00:00:00+00:00</time>
        <ele>863.0</ele>
      </trkpt>
      <trkpt lat="47.393679" lon="14.953267">
        <time>1970-01-01T00:00:00+00:00</time>
        <ele>866.0</ele>
      </trkpt>
      <trkpt lat="47.39387" lon="14.952449">
        <time>1970-01-01T00:00:00+00:00</time>
        <ele>871.0</ele>
      </trkpt>
      <trkpt lat="47.394055" lon="14.951803">
        <time>1970-01-01T00:00:00+00:00</time>
        <ele>875.0</ele>
      </trkpt>
      <trkpt lat="47.394231" lon="14.951314">
        <time>1970-01-01T00:00:00+00:00</time>
        <ele>875.0</ele>
      </trkpt>
      <trkpt lat="47.394358" lon="14.950478">
        <time>1970-01-01T00:00:00+00:00</time>
        <ele>880.0</ele>
      </trkpt>
      <trkpt lat="47.394393" lon="14.950166">
        <time>1970-01-01T00:00:00+00:00</time>
        <ele>885.0</ele>
      </trkpt>
      <trkpt lat="47.394615" lon="14.949842">
        <time>1970-01-01T00:00:00+00:00</time>
        <ele>887.0</ele>
      </trkpt>
      <trkpt lat="47.394812" lon="14.949475">
        <time>1970-01-01T00:00:00+00:00</time>
        <ele>888.0</ele>
      </trkpt>
      <trkpt lat="47.394646" lon="14.949317">
        <time>1970-01-01T00:00:00+00:00</time>
        <ele>894.0</ele>
      </trkpt>
      <trkpt lat="47.394462" lon="14.949177">
        <time>1970-01-01T00:00:00+00:00</time>
        <ele>896.0</ele>
      </trkpt>
      <trkpt lat="47.394603" lon="14.948973">
        <time>1970-01-01T00:00:00+00:00</time>
        <ele>900.0</ele>
      </trkpt>
      <trkpt lat="47.394781" lon="14.948595">
        <time>1970-01-01T00:00:00+00:00</time>
        <ele>911.0</ele>
      </trkpt>
      <trkpt lat="47.394836" lon="14.948333">
        <time>1970-01-01T00:00:00+00:00</time>
        <ele>915.0</ele>
      </trkpt>
      <trkpt lat="47.394895" lon="14.948221">
        <time>1970-01-01T00:00:00+00:00</time>
        <ele>918.0</ele>
      </trkpt>
      <trkpt lat="47.395098" lon="14.948044">
        <time>1970-01-01T00:00:00+00:00</time>
        <ele>922.0</ele>
      </trkpt>
      <trkpt lat="47.395195" lon="14.948027">
        <time>1970-01-01T00:00:00+00:00</time>
        <ele>924.0</ele>
      </trkpt>
      <trkpt lat="47.395314" lon="14.947814">
        <time>1970-01-01T00:00:00+00:00</time>
        <ele>928.0</ele>
      </trkpt>
      <trkpt lat="47.395438" lon="14.947645">
        <time>1970-01-01T00:00:00+00:00</time>
        <ele>931.0</ele>
      </trkpt>
      <trkpt lat="47.395536" lon="14.947461">
        <time>1970-01-01T00:00:00+00:00</time>
        <ele>934.0</ele>
      </trkpt>
      <trkpt lat="47.395569" lon="14.947327">
        <time>1970-01-01T00:00:00+00:00</time>
        <ele>936.0</ele>
      </trkpt>
      <trkpt lat="47.395671" lon="14.947144">
        <time>1970-01-01T00:00:00+00:00</time>
        <ele>940.0</ele>
      </trkpt>
      <trkpt lat="47.395889" lon="14.946552">
        <time>1970-01-01T00:00:00+00:00</time>
        <ele>953.0</ele>
      </trkpt>
      <trkpt lat="47.39581" lon="14.94582">
        <time>1970-01-01T00:00:00+00:00</time>
        <ele>957.0</ele>
      </trkpt>
      <trkpt lat="47.395645" lon="14.945335">
        <time>1970-01-01T00:00:00+00:00</time>
        <ele>954.0</ele>
      </trkpt>
      <trkpt lat="47.395659" lon="14.945301">
        <time>1970-01-01T00:00:00+00:00</time>
        <ele>955.0</ele>
      </trkpt>
      <trkpt lat="47.395659" lon="14.945301">
        <time>1970-01-01T00:00:00+00:00</time>
        <ele>955.0</ele>
      </trkpt>
      <trkpt lat="47.395645" lon="14.945335">
        <time>1970-01-01T00:00:00+00:00</time>
        <ele>954.0</ele>
      </trkpt>
      <trkpt lat="47.39581" lon="14.94582">
        <time>1970-01-01T00:00:00+00:00</time>
        <ele>957.0</ele>
      </trkpt>
      <trkpt lat="47.395889" lon="14.946552">
        <time>1970-01-01T00:00:00+00:00</time>
        <ele>953.0</ele>
      </trkpt>
      <trkpt lat="47.395671" lon="14.947144">
        <time>1970-01-01T00:00:00+00:00</time>
        <ele>940.0</ele>
      </trkpt>
      <trkpt lat="47.395569" lon="14.947327">
        <time>1970-01-01T00:00:00+00:00</time>
        <ele>936.0</ele>
      </trkpt>
      <trkpt lat="47.395536" lon="14.947461">
        <time>1970-01-01T00:00:00+00:00</time>
        <ele>934.0</ele>
      </trkpt>
      <trkpt lat="47.395438" lon="14.947645">
        <time>1970-01-01T00:00:00+00:00</time>
        <ele>931.0</ele>
      </trkpt>
      <trkpt lat="47.395314" lon="14.947814">
        <time>1970-01-01T00:00:00+00:00</time>
        <ele>928.0</ele>
      </trkpt>
      <trkpt lat="47.395195" lon="14.948027">
        <time>1970-01-01T00:00:00+00:00</time>
        <ele>924.0</ele>
      </trkpt>
      <trkpt lat="47.395098" lon="14.948044">
        <time>1970-01-01T00:00:00+00:00</time>
        <ele>922.0</ele>
      </trkpt>
      <trkpt lat="47.394895" lon="14.948221">
        <time>1970-01-01T00:00:00+00:00</time>
        <ele>918.0</ele>
      </trkpt>
      <trkpt lat="47.394836" lon="14.948333">
        <time>1970-01-01T00:00:00+00:00</time>
        <ele>915.0</ele>
      </trkpt>
      <trkpt lat="47.394781" lon="14.948595">
        <time>1970-01-01T00:00:00+00:00</time>
        <ele>911.0</ele>
      </trkpt>
      <trkpt lat="47.394603" lon="14.948973">
        <time>1970-01-01T00:00:00+00:00</time>
        <ele>900.0</ele>
      </trkpt>
      <trkpt lat="47.394462" lon="14.949177">
        <time>1970-01-01T00:00:00+00:00</time>
        <ele>896.0</ele>
      </trkpt>
      <trkpt lat="47.394646" lon="14.949317">
        <time>1970-01-01T00:00:00+00:00</time>
        <ele>894.0</ele>
      </trkpt>
      <trkpt lat="47.394812" lon="14.949475">
        <time>1970-01-01T00:00:00+00:00</time>
        <ele>888.0</ele>
      </trkpt>
      <trkpt lat="47.394615" lon="14.949842">
        <time>1970-01-01T00:00:00+00:00</time>
        <ele>887.0</ele>
      </trkpt>
      <trkpt lat="47.394393" lon="14.950166">
        <time>1970-01-01T00:00:00+00:00</time>
        <ele>885.0</ele>
      </trkpt>
      <trkpt lat="47.394358" lon="14.950478">
        <time>1970-01-01T00:00:00+00:00</time>
        <ele>880.0</ele>
      </trkpt>
      <trkpt lat="47.394231" lon="14.951314">
        <time>1970-01-01T00:00:00+00:00</time>
        <ele>875.0</ele>
      </trkpt>
      <trkpt lat="47.394055" lon="14.951803">
        <time>1970-01-01T00:00:00+00:00</time>
        <ele>875.0</ele>
      </trkpt>
      <trkpt lat="47.39387" lon="14.952449">
        <time>1970-01-01T00:00:00+00:00</time>
        <ele>871.0</ele>
      </trkpt>
      <trkpt lat="47.393679" lon="14.953267">
        <time>1970-01-01T00:00:00+00:00</time>
        <ele>866.0</ele>
      </trkpt>
      <trkpt lat="47.39356" lon="14.953954">
        <time>1970-01-01T00:00:00+00:00</time>
        <ele>863.0</ele>
      </trkpt>
      <trkpt lat="47.393634" lon="14.954954">
        <time>1970-01-01T00:00:00+00:00</time>
        <ele>856.0</ele>
      </trkpt>
      <trkpt lat="47.393667" lon="14.955727">
        <time>1970-01-01T00:00:00+00:00</time>
        <ele>847.0</ele>
      </trkpt>
      <trkpt lat="47.39373" lon="14.956443">
        <time>1970-01-01T00:00:00+00:00</time>
        <ele>844.0</ele>
      </trkpt>
      <trkpt lat="47.393699" lon="14.956893">
        <time>1970-01-01T00:00:00+00:00</time>
        <ele>845.0</ele>
      </trkpt>
      <trkpt lat="47.393791" lon="14.956619">
        <time>1970-01-01T00:00:00+00:00</time>
        <ele>841.0</ele>
      </trkpt>
      <trkpt lat="47.393934" lon="14.956272">
        <time>1970-01-01T00:00:00+00:00</time>
        <ele>837.0</ele>
      </trkpt>
      <trkpt lat="47.39417" lon="14.955958">
        <time>1970-01-01T00:00:00+00:00</time>
        <ele>832.0</ele>
      </trkpt>
      <trkpt lat="47.394424" lon="14.955709">
        <time>1970-01-01T00:00:00+00:00</time>
        <ele>831.0</ele>
      </trkpt>
      <trkpt lat="47.394764" lon="14.955304">
        <time>1970-01-01T00:00:00+00:00</time>
        <ele>822.0</ele>
      </trkpt>
      <trkpt lat="47.394934" lon="14.955205">
        <time>1970-01-01T00:00:00+00:00</time>
        <ele>818.0</ele>
      </trkpt>
      <trkpt lat="47.395226" lon="14.955139">
        <time>1970-01-01T00:00:00+00:00</time>
        <ele>812.0</ele>
      </trkpt>
      <trkpt lat="47.395472" lon="14.955157">
        <time>1970-01-01T00:00:00+00:00</time>
        <ele>807.0</ele>
      </trkpt>
      <trkpt lat="47.395792" lon="14.955242">
        <time>1970-01-01T00:00:00+00:00</time>
        <ele>802.0</ele>
      </trkpt>
      <trkpt lat="47.396104" lon="14.955365">
        <time>1970-01-01T00:00:00+00:00</time>
        <ele>798.0</ele>
      </trkpt>
      <trkpt lat="47.396638" lon="14.955831">
        <time>1970-01-01T00:00:00+00:00</time>
        <ele>792.0</ele>
      </trkpt>
      <trkpt lat="47.397037" lon="14.955945">
        <time>1970-01-01T00:00:00+00:00</time>
        <ele>789.0</ele>
      </trkpt>
      <trkpt lat="47.397218" lon="14.955965">
        <time>1970-01-01T00:00:00+00:00</time>
        <ele>785.0</ele>
      </trkpt>
      <trkpt lat="47.397648" lon="14.955811">
        <time>1970-01-01T00:00:00+00:00</time>
        <ele>776.0</ele>
      </trkpt>
      <trkpt lat="47.398052" lon="14.9558">
        <time>1970-01-01T00:00:00+00:00</time>
        <ele>770.0</ele>
      </trkpt>
      <trkpt lat="47.398415" lon="14.955831">
        <time>1970-01-01T00:00:00+00:00</time>
        <ele>763.0</ele>
      </trkpt>
      <trkpt lat="47.398637" lon="14.955787">
        <time>1970-01-01T00:00:00+00:00</time>
        <ele>758.0</ele>
      </trkpt>
      <trkpt lat="47.398992" lon="14.955763">
        <time>1970-01-01T00:00:00+00:00</time>
        <ele>752.0</ele>
      </trkpt>
      <trkpt lat="47.399669" lon="14.955929">
        <time>1970-01-01T00:00:00+00:00</time>
        <ele>745.0</ele>
      </trkpt>
      <trkpt lat="47.40014" lon="14.9559">
        <time>1970-01-01T00:00:00+00:00</time>
        <ele>741.0</ele>
      </trkpt>
      <trkpt lat="47.400355" lon="14.955855">
        <time>1970-01-01T00:00:00+00:00</time>
        <ele>740.0</ele>
      </trkpt>
      <trkpt lat="47.400482" lon="14.955795">
        <time>1970-01-01T00:00:00+00:00</time>
        <ele>740.0</ele>
      </trkpt>
      <trkpt lat="47.400638" lon="14.955652">
        <time>1970-01-01T00:00:00+00:00</time>
        <ele>739.0</ele>
      </trkpt>
      <trkpt lat="47.40105" lon="14.955057">
        <time>1970-01-01T00:00:00+00:00</time>
        <ele>730.0</ele>
      </trkpt>
      <trkpt lat="47.401112" lon="14.955004">
        <time>1970-01-01T00:00:00+00:00</time>
        <ele>730.0</ele>
      </trkpt>
      <trkpt lat="47.401453" lon="14.954922">
        <time>1970-01-01T00:00:00+00:00</time>
        <ele>725.0</ele>
      </trkpt>
      <trkpt lat="47.40183" lon="14.954712">
        <time>1970-01-01T00:00:00+00:00</time>
        <ele>718.0</ele>
      </trkpt>
      <trkpt lat="47.40208" lon="14.954642">
        <time>1970-01-01T00:00:00+00:00</time>
        <ele>715.0</ele>
      </trkpt>
      <trkpt lat="47.402428" lon="14.954612">
        <time>1970-01-01T00:00:00+00:00</time>
        <ele>711.0</ele>
      </trkpt>
      <trkpt lat="47.402612" lon="14.954567">
        <time>1970-01-01T00:00:00+00:00</time>
        <ele>710.0</ele>
      </trkpt>
      <trkpt lat="47.402744" lon="14.954087">
        <time>1970-01-01T00:00:00+00:00</time>
        <ele>710.0</ele>
      </trkpt>
      <trkpt lat="47.402819" lon="14.953351">
        <time>1970-01-01T00:00:00+00:00</time>
        <ele>713.0</ele>
      </trkpt>
      <trkpt lat="47.402883" lon="14.953227">
        <time>1970-01-01T00:00:00+00:00</time>
        <ele>713.0</ele>
      </trkpt>
      <trkpt lat="47.403047" lon="14.953085">
        <time>1970-01-01T00:00:00+00:00</time>
        <ele>712.0</ele>
      </trkpt>
      <trkpt lat="47.403305" lon="14.952975">
        <time>1970-01-01T00:00:00+00:00</time>
        <ele>710.0</ele>
      </trkpt>
      <trkpt lat="47.404063" lon="14.952772">
        <time>1970-01-01T00:00:00+00:00</time>
        <ele>704.0</ele>
      </trkpt>
      <trkpt lat="47.404269" lon="14.952737">
        <time>1970-01-01T00:00:00+00:00</time>
        <ele>701.0</ele>
      </trkpt>
      <trkpt lat="47.404666" lon="14.952728">
        <time>1970-01-01T00:00:00+00:00</time>
        <ele>700.0</ele>
      </trkpt>
      <trkpt lat="47.405226" lon="14.952855">
        <time>1970-01-01T00:00:00+00:00</time>
        <ele>698.0</ele>
      </trkpt>
      <trkpt lat="47.405373" lon="14.952861">
        <time>1970-01-01T00:00:00+00:00</time>
        <ele>697.0</ele>
      </trkpt>
      <trkpt lat="47.405551" lon="14.952848">
        <time>1970-01-01T00:00:00+00:00</time>
        <ele>697.0</ele>
      </trkpt>
      <trkpt lat="47.405849" lon="14.952787">
        <time>1970-01-01T00:00:00+00:00</time>
        <ele>697.0</ele>
      </trkpt>
      <trkpt lat="47.406128" lon="14.952621">
        <time>1970-01-01T00:00:00+00:00</time>
        <ele>698.0</ele>
      </trkpt>
      <trkpt lat="47.406402" lon="14.952373">
        <time>1970-01-01T00:00:00+00:00</time>
        <ele>699.0</ele>
      </trkpt>
      <trkpt lat="47.406695" lon="14.951891">
        <time>1970-01-01T00:00:00+00:00</time>
        <ele>700.0</ele>
      </trkpt>
      <trkpt lat="47.406826" lon="14.951519">
        <time>1970-01-01T00:00:00+00:00</time>
        <ele>701.0</ele>
      </trkpt>
      <trkpt lat="47.406722" lon="14.951429">
        <time>1970-01-01T00:00:00+00:00</time>
        <ele>701.0</ele>
      </trkpt>
      <trkpt lat="47.406625" lon="14.951215">
        <time>1970-01-01T00:00:00+00:00</time>
        <ele>702.0</ele>
      </trkpt>
      <trkpt lat="47.406543" lon="14.950976">
        <time>1970-01-01T00:00:00+00:00</time>
        <ele>701.0</ele>
      </trkpt>
      <trkpt lat="47.406464" lon="14.950656">
        <time>1970-01-01T00:00:00+00:00</time>
        <ele>701.0</ele>
      </trkpt>
      <trkpt lat="47.406438" lon="14.950022">
        <time>1970-01-01T00:00:00+00:00</time>
        <ele>703.0</ele>
      </trkpt>
      <trkpt lat="47.406462" lon="14.949433">
        <time>1970-01-01T00:00:00+00:00</time>
        <ele>705.0</ele>
      </trkpt>
      <trkpt lat="47.406616" lon="14.948039">
        <time>1970-01-01T00:00:00+00:00</time>
        <ele>707.0</ele>
      </trkpt>
      <trkpt lat="47.406644" lon="14.94761">
        <time>1970-01-01T00:00:00+00:00</time>
        <ele>708.0</ele>
      </trkpt>
      <trkpt lat="47.406655" lon="14.946823">
        <time>1970-01-01T00:00:00+00:00</time>
        <ele>707.0</ele>
      </trkpt>
      <trkpt lat="47.406612" lon="14.944615">
        <time>1970-01-01T00:00:00+00:00</time>
        <ele>701.0</ele>
      </trkpt>
      <trkpt lat="47.406587" lon="14.944207">
        <time>1970-01-01T00:00:00+00:00</time>
        <ele>700.0</ele>
      </trkpt>
      <trkpt lat="47.406537" lon="14.943754">
        <time>1970-01-01T00:00:00+00:00</time>
        <ele>699.0</ele>
      </trkpt>
      <trkpt lat="47.406447" lon="14.943252">
        <time>1970-01-01T00:00:00+00:00</time>
        <ele>699.0</ele>
      </trkpt>
      <trkpt lat="47.406224" lon="14.942281">
        <time>1970-01-01T00:00:00+00:00</time>
        <ele>699.0</ele>
      </trkpt>
      <trkpt lat="47.406208" lon="14.942163">
        <time>1970-01-01T00:00:00+00:00</time>
        <ele>699.0</ele>
      </trkpt>
      <trkpt lat="47.405899" lon="14.941891">
        <time>1970-01-01T00:00:00+00:00</time>
        <ele>699.0</ele>
      </trkpt>
      <trkpt lat="47.404527" lon="14.940916">
        <time>1970-01-01T00:00:00+00:00</time>
        <ele>695.0</ele>
      </trkpt>
      <trkpt lat="47.404247" lon="14.940697">
        <time>1970-01-01T00:00:00+00:00</time>
        <ele>695.0</ele>
      </trkpt>
      <trkpt lat="47.40378" lon="14.940206">
        <time>1970-01-01T00:00:00+00:00</time>
        <ele>693.0</ele>
      </trkpt>
      <trkpt lat="47.403411" lon="14.939709">
        <time>1970-01-01T00:00:00+00:00</time>
        <ele>692.0</ele>
      </trkpt>
      <trkpt lat="47.403098" lon="14.939246">
        <time>1970-01-01T00:00:00+00:00</time>
        <ele>691.0</ele>
      </trkpt>
      <trkpt lat="47.402765" lon="14.938828">
        <time>1970-01-01T00:00:00+00:00</time>
        <ele>691.0</ele>
      </trkpt>
      <trkpt lat="47.40255" lon="14.938614">
        <time>1970-01-01T00:00:00+00:00</time>
        <ele>689.0</ele>
      </trkpt>
      <trkpt lat="47.402131" lon="14.938014">
        <time>1970-01-01T00:00:00+00:00</time>
        <ele>687.0</ele>
      </trkpt>
      <trkpt lat="47.401752" lon="14.936969">
        <time>1970-01-01T00:00:00+00:00</time>
        <ele>684.0</ele>
      </trkpt>
      <trkpt lat="47.401548" lon="14.936487">
        <time>1970-01-01T00:00:00+00:00</time>
        <ele>682.0</ele>
      </trkpt>
      <trkpt lat="47.401637" lon="14.936278">
        <time>1970-01-01T00:00:00+00:00</time>
        <ele>683.0</ele>
      </trkpt>
      <trkpt lat="47.401667" lon="14.936116">
        <time>1970-01-01T00:00:00+00:00</time>
        <ele>683.0</ele>
      </trkpt>
    </trkseg>
  </trk>
</gpx>
